DW3560 Weather Reports


Display with metric or nautical units.
time (UTC)temp
F
wind
direction
speed
MPH
gust
MPH
rain 1hr
in
rain 24hr
in
rain mn
in
humidity
%
barometer
mb
20260510144002 51 248 2.0 6.0 0.00 0.00 0.00 96 1014.5
20260510143502 51 244 1.0 5.0 0.00 0.00 0.00 96 1014.5
20260510143023 51 242 1.0 4.0 0.00 0.00 0.00 96 1014.5
20260510142502 51 236 1.0 7.0 0.00 0.00 0.00 96 1014.5
20260510142023 50 231 1.0 7.0 0.00 0.00 0.00 96 1014.5
20260510141502 50 232 1.0 6.0 0.00 0.00 0.00 96 1014.5
20260510141003 50 237 1.0 6.0 0.00 0.00 0.00 96 1014.5
20260510140502 50 246 1.0 4.0 0.00 0.00 0.00 96 1014.5
20260510140002 50 242 1.0 4.0 0.00 0.00 0.00 95 1014.5
20260510135502 50 226 0.0 3.0 0.00 0.00 0.00 96 1014.5
20260510135002 51 242 1.0 4.0 0.00 0.00 0.00 96 1014.5
20260510134502 50 245 0.0 4.0 0.00 0.00 0.00 96 1014.5
20260510134003 50 248 1.0 4.0 0.00 0.00 0.00 96 1014.5
20260510133523 50 250 1.0 4.0 0.00 0.00 0.00 95 1014.5
20260510133003 50 244 1.0 5.0 0.00 0.00 0.00 96 1014.5
20260510132523 50 237 1.0 5.0 0.00 0.00 0.00 95 1014.5
20260510132003 51 256 0.0 5.0 0.00 0.00 0.00 95 1014.5
20260510131504 50 243 1.0 5.0 0.00 0.00 0.00 95 1014.5
20260510131002 50 229 1.0 5.0 0.00 0.00 0.00 95 1014.5
20260510130502 50 237 1.0 3.0 0.00 0.00 0.00 95 1014.5
20260510130002 50 242 1.0 5.0 0.00 0.00 0.00 95 1014.5
20260510125502 50 235 1.0 5.0 0.00 0.00 0.00 95 1014.5
20260510125002 50 233 1.0 5.0 0.00 0.00 0.00 95 1014.5
20260510124503 50 233 2.0 6.0 0.00 0.00 0.00 95 1014.5
20260510124003 50 239 2.0 6.0 0.00 0.00 0.00 95 1014.5
20260510123502 50 242 2.0 6.0 0.00 0.00 0.00 95 1014.5
20260510123002 50 233 1.0 4.0 0.00 0.00 0.00 95 1014.5
20260510122502 51 239 1.0 4.0 0.00 0.00 0.00 95 1014.5
20260510122002 51 259 0.0 4.0 0.00 0.00 0.00 95 1014.5
20260510121502 51 250 1.0 6.0 0.00 0.00 0.00 95 1014.5
20260510121023 51 246 1.0 6.0 0.00 0.00 0.00 95 1014.5
20260510120502 51 240 0.0 4.0 0.00 0.00 0.00 95 1014.5
20260510120002 50 238 1.0 5.0 0.00 0.00 0.00 95 1014.5
20260510115523 50 235 1.0 5.0 0.00 0.00 0.00 95 1014.5
20260510115023 50 239 1.0 4.0 0.00 0.00 0.00 95 1014.5
20260510114523 50 240 1.0 8.0 0.00 0.00 0.00 95 1014.5
20260510114002 50 242 1.0 8.0 0.00 0.00 0.00 95 1014.5
20260510113524 50 240 1.0 5.0 0.00 0.00 0.00 95 1014.5
20260510113002 50 227 2.0 6.0 0.00 0.00 0.00 95 1014.5
20260510112503 50 229 1.0 6.0 0.00 0.00 0.00 95 1014.5
20260510112003 50 240 1.0 4.0 0.00 0.00 0.00 95 1014.5
20260510111502 50 244 1.0 4.0 0.00 0.00 0.00 95 1014.5
20260510111023 50 247 2.0 8.0 0.00 0.00 0.00 95 1014.5
20260510110502 50 242 1.0 8.0 0.00 0.00 0.00 95 1014.5
20260510110024 50 240 1.0 6.0 0.00 0.00 0.00 95 1015.2
20260510105502 50 241 1.0 7.0 0.00 0.00 0.00 95 1015.2
20260510105002 50 246 2.0 7.0 0.00 0.00 0.00 95 1015.2
20260510104502 50 250 2.0 7.0 0.00 0.00 0.00 95 1015.2
20260510104002 50 249 1.0 7.0 0.00 0.00 0.00 95 1015.2
20260510103502 51 247 1.0 5.0 0.00 0.00 0.00 95 1015.2
20260510103002 51 242 1.0 3.0 0.00 0.00 0.00 95 1015.2
20260510102502 51 241 1.0 4.0 0.00 0.00 0.00 95 1015.2
20260510102023 51 240 1.0 4.0 0.00 0.00 0.00 95 1015.2
20260510101502 51 232 1.0 5.0 0.00 0.00 0.00 95 1015.2
20260510101002 51 236 1.0 5.0 0.00 0.00 0.00 94 1015.2
20260510100502 51 251 1.0 5.0 0.00 0.00 0.00 95 1015.2
20260510100003 51 245 1.0 5.0 0.00 0.00 0.00 94 1015.2
20260510095502 51 233 1.0 5.0 0.00 0.00 0.00 94 1015.2
20260510095002 51 236 1.0 3.0 0.00 0.00 0.00 94 1015.2
20260510094503 51 232 1.0 8.0 0.00 0.00 0.00 94 1015.2
20260510094003 51 237 1.0 8.0 0.00 0.00 0.00 94 1015.2
20260510093503 51 251 1.0 4.0 0.00 0.00 0.00 94 1015.2
20260510093002 51 238 1.0 5.0 0.00 0.00 0.00 94 1015.2
20260510092502 51 242 1.0 5.0 0.00 0.00 0.00 94 1015.2
20260510092002 51 251 1.0 5.0 0.00 0.00 0.00 94 1015.2
20260510091503 51 244 1.0 3.0 0.00 0.00 0.00 94 1015.2
20260510091002 51 231 1.0 6.0 0.00 0.00 0.00 94 1015.2
20260510090503 51 238 1.0 6.0 0.00 0.00 0.00 94 1015.2
20260510090002 51 246 1.0 8.0 0.00 0.00 0.00 94 1015.2
20260510085523 51 239 1.0 8.0 0.00 0.00 0.00 94 1015.2
20260510085002 51 237 1.0 9.0 0.00 0.00 0.00 94 1015.2
20260510084502 51 251 1.0 9.0 0.00 0.00 0.00 94 1015.2
20260510084003 51 255 1.0 5.0 0.00 0.00 0.00 93 1015.2
20260510083502 51 243 1.0 4.0 0.00 0.00 0.00 93 1015.2
20260510083023 51 235 1.0 3.0 0.00 0.00 0.00 93 1015.2
20260510082524 51 230 1.0 5.0 0.00 0.00 0.00 93 1015.2
20260510082003 51 236 1.0 6.0 0.00 0.00 0.00 93 1015.2
20260510081502 51 250 1.0 9.0 0.00 0.00 0.00 93 1015.2
20260510081002 51 245 1.0 9.0 0.00 0.00 0.00 93 1015.2
20260510080502 52 242 1.0 3.0 0.00 0.00 0.00 93 1015.2
20260510080002 52 239 1.0 5.0 0.00 0.00 0.00 93 1015.2
20260510075502 52 232 1.0 5.0 0.00 0.00 0.00 93 1015.2
20260510075002 52 246 0.0 4.0 0.00 0.00 0.00 93 1015.2
20260510074502 52 237 1.0 5.0 0.00 0.00 0.00 93 1015.2
20260510074024 52 231 1.0 6.0 0.00 0.00 0.00 93 1015.2
20260510073503 52 229 1.0 6.0 0.00 0.00 0.00 92 1015.2
20260510073002 52 235 0.0 4.0 0.00 0.00 0.00 93 1015.2
20260510072524 52 231 1.0 6.0 0.00 0.00 0.00 92 1015.2
20260510072002 52 230 1.0 6.0 0.00 0.00 0.00 92 1015.2
20260510071502 52 243 0.0 2.0 0.00 0.00 0.00 92 1015.2
20260510071002 52 251 0.0 2.0 0.00 0.00 0.00 92 1015.2
20260510070503 52 260 0.0 3.0 0.00 0.00 0.00 92 1015.2
20260510070008 52 244 0.0 3.0 0.00 0.00 0.00 92 1015.2
20260510065503 52 233 0.0 3.0 0.00 0.00 0.00 92 1015.2
20260510065003 52 231 1.0 4.0 0.00 0.00 0.00 92 1015.2
20260510064503 52 235 1.0 4.0 0.00 0.00 0.00 92 1015.2
20260510064003 52 230 1.0 5.0 0.00 0.00 0.00 92 1015.2
20260510063003 52 239 1.0 7.0 0.00 0.00 0.00 91 1015.2
20260510062503 52 246 1.0 7.0 0.00 0.00 0.00 91 1015.2
20260510062002 52 245 1.0 3.0 0.00 0.00 0.00 92 1015.2
20260510061503 52 231 1.0 3.0 0.00 0.00 0.00 91 1015.2
20260510061003 52 226 1.0 5.0 0.00 0.00 0.00 91 1015.2
20260510060502 52 224 1.0 5.0 0.00 0.00 0.00 91 1015.2
20260510060002 52 218 1.0 5.0 0.00 0.00 0.00 91 1015.2
20260510055502 52 215 1.0 5.0 0.00 0.00 0.00 91 1015.2
20260510055002 52 221 1.0 4.0 0.00 0.00 0.00 91 1015.2
20260510054503 53 231 1.0 4.0 0.00 0.00 0.00 91 1015.2
20260510054002 53 226 1.0 6.0 0.00 0.00 0.00 91 1015.2
20260510053503 53 228 1.0 6.0 0.00 0.00 0.00 91 1015.2
20260510053003 53 234 1.0 4.0 0.00 0.00 0.00 90 1015.2
20260510052524 53 229 1.0 6.0 0.00 0.00 0.00 90 1015.2
20260510052002 53 229 1.0 6.0 0.00 0.00 0.00 90 1015.2
20260510051503 53 236 1.0 4.0 0.00 0.00 0.00 90 1015.2
20260510051003 53 237 0.0 3.0 0.00 0.00 0.00 90 1015.2
20260510050503 53 241 1.0 4.0 0.00 0.00 0.00 90 1015.2
20260510050003 53 243 1.0 4.0 0.00 0.00 0.00 90 1015.2
20260510045503 54 233 1.0 5.0 0.00 0.00 0.00 90 1015.2
20260510045023 54 223 0.0 5.0 0.00 0.00 0.00 90 1015.2
20260510044502 54 230 0.0 4.0 0.00 0.00 0.00 90 1015.2
20260510044002 54 228 0.0 4.0 0.00 0.00 0.00 90 1015.2
20260510043502 54 223 0.0 3.0 0.00 0.00 0.00 89 1015.2
20260510043003 54 226 0.0 3.0 0.00 0.00 0.00 90 1015.2
20260510042503 54 245 0.0 4.0 0.00 0.00 0.00 89 1015.2
20260510042003 54 243 0.0 4.0 0.00 0.00 0.00 89 1015.2
20260510041503 54 224 0.0 4.0 0.00 0.00 0.00 89 1015.2
20260510041024 54 215 1.0 4.0 0.00 0.00 0.00 89 1015.2
20260510040503 54 230 1.0 4.0 0.00 0.00 0.00 88 1015.2
20260510040003 54 235 1.0 5.0 0.00 0.00 0.00 88 1015.2
20260510035503 55 235 1.0 5.0 0.00 0.00 0.00 88 1015.2
20260510035003 55 246 1.0 5.0 0.00 0.00 0.00 88 1015.2
20260510034503 55 245 1.0 5.0 0.00 0.00 0.00 88 1015.2
20260510034003 55 239 0.0 3.0 0.00 0.00 0.00 88 1015.2
20260510033503 56 225 0.0 2.0 0.00 0.00 0.00 88 1015.2
20260510033024 56 221 0.0 1.0 0.00 0.00 0.00 88 1015.2
20260510032502 56 228 0.0 4.0 0.00 0.00 0.00 87 1015.2
20260510032002 56 231 1.0 4.0 0.00 0.00 0.00 87 1015.2
20260510031503 56 235 1.0 4.0 0.00 0.00 0.00 87 1015.2
20260510031002 56 221 1.0 4.0 0.00 0.00 0.00 87 1015.2
20260510030524 56 218 1.0 4.0 0.00 0.00 0.00 87 1015.2
20260510030003 56 241 1.0 3.0 0.00 0.00 0.00 87 1015.2
20260510025524 56 248 1.0 3.0 0.00 0.00 0.00 86 1015.2
20260510025003 56 265 0.0 3.0 0.00 0.00 0.00 86 1015.2
20260510024503 56 286 1.0 3.0 0.00 0.00 0.00 85 1015.2
20260510024003 57 249 1.0 4.0 0.00 0.00 0.00 85 1015.2
20260510023503 57 224 1.0 4.0 0.00 0.00 0.00 85 1015.2
20260510023002 57 215 1.0 5.0 0.00 0.00 0.00 85 1015.2
20260510022503 58 219 1.0 5.0 0.00 0.00 0.00 84 1015.2
20260510022003 58 222 0.0 5.0 0.00 0.00 0.00 84 1015.2
20260510021502 58 226 1.0 5.0 0.00 0.00 0.00 83 1015.2
20260510021002 58 237 1.0 4.0 0.00 0.00 0.00 83 1015.2
20260510020503 59 226 1.0 4.0 0.00 0.00 0.00 82 1015.2
20260510020003 59 215 1.0 4.0 0.00 0.00 0.00 82 1015.2
20260510015503 59 222 1.0 4.0 0.00 0.00 0.00 81 1015.2
20260510015002 60 242 1.0 3.0 0.00 0.00 0.00 81 1015.2
20260510014503 60 232 1.0 4.0 0.00 0.00 0.00 81 1015.2
20260510014003 60 222 1.0 7.0 0.00 0.00 0.00 80 1015.2
20260510013503 60 219 1.0 8.0 0.00 0.00 0.00 80 1015.2
20260510013003 61 222 1.0 8.0 0.00 0.00 0.00 79 1015.2
20260510012502 61 219 1.0 4.0 0.00 0.00 0.00 79 1015.2
20260510012003 62 257 1.0 5.0 0.00 0.00 0.00 78 1015.2
20260510011503 62 262 1.0 5.0 0.00 0.00 0.00 77 1015.2
20260510011002 62 222 1.0 5.0 0.00 0.00 0.00 77 1015.2
20260510010502 63 225 2.0 5.0 0.00 0.00 0.00 76 1015.2
20260510010024 63 264 1.0 4.0 0.00 0.00 0.00 76 1015.2
20260510005503 64 276 1.0 5.0 0.00 0.00 0.00 75 1015.2
20260510005003 64 251 1.0 5.0 0.00 0.00 0.00 74 1015.2
20260510004524 64 285 1.0 6.0 0.00 0.00 0.00 74 1015.2
20260510004002 65 326 1.0 6.0 0.00 0.00 0.00 74 1015.2
20260510003502 65 312 1.0 5.0 0.00 0.00 0.00 74 1015.2
20260510003003 65 287 1.0 5.0 0.00 0.00 0.00 74 1015.2
20260510002524 65 343 1.0 5.0 0.00 0.00 0.00 73 1015.2
20260510002002 65 360 1.0 5.0 0.00 0.00 0.00 73 1015.2
20260510001503 66 335 1.0 5.0 0.00 0.00 0.00 73 1015.2
20260510001003 66 305 1.0 5.0 0.00 0.00 0.00 73 1015.2
20260510000503 66 293 1.0 5.0 0.00 0.00 0.00 73 1015.2
20260510000003 66 308 2.0 6.0 0.00 0.00 0.00 72 1015.2
20260509235503 66 308 1.0 7.0 0.00 0.00 0.00 72 1015.2
20260509235003 66 341 2.0 9.0 0.00 0.00 0.00 72 1015.2
20260509234503 66 279 2.0 9.0 0.00 0.00 0.00 72 1015.2
20260509234024 66 251 2.0 11.0 0.00 0.00 0.00 71 1015.2
20260509233524 67 306 2.0 11.0 0.00 0.00 0.00 71 1015.2
20260509233003 67 314 2.0 7.0 0.00 0.00 0.00 71 1015.2
20260509232503 67 329 1.0 7.0 0.00 0.00 0.00 71 1015.2
20260509232002 67 336 2.0 7.0 0.00 0.00 0.00 71 1015.2
20260509231503 67 337 2.0 8.0 0.00 0.00 0.00 71 1015.2
20260509231024 67 324 2.0 8.0 0.00 0.00 0.00 71 1015.2
20260509230503 67 295 2.0 5.0 0.00 0.00 0.00 71 1015.2
20260509230003 68 332 2.0 6.0 0.00 0.00 0.00 69 1015.2
20260509225503 68 343 1.0 8.0 0.00 0.00 0.00 69 1015.2
20260509225002 68 326 1.0 8.0 0.00 0.00 0.00 70 1015.2
20260509224502 68 296 2.0 8.0 0.00 0.00 0.00 70 1015.2
20260509224024 68 297 2.0 5.0 0.00 0.00 0.00 70 1015.2
20260509223503 68 341 2.0 8.0 0.00 0.00 0.00 69 1015.2
20260509223003 68 326 2.0 8.0 0.00 0.00 0.00 68 1015.2
20260509222524 68 299 2.0 5.0 0.00 0.00 0.00 68 1015.2
20260509222003 69 327 2.0 5.0 0.00 0.00 0.00 69 1015.2
20260509221503 69 327 1.0 5.0 0.00 0.00 0.00 68 1015.2
20260509221003 69 272 1.0 5.0 0.00 0.00 0.00 68 1015.2
20260509220503 69 334 1.0 5.0 0.00 0.00 0.00 66 1015.2
20260509220003 70 335 1.0 5.0 0.00 0.00 0.00 67 1015.2
20260509215524 70 251 1.0 6.0 0.00 0.00 0.00 67 1015.2
20260509215003 70 271 1.0 6.0 0.00 0.00 0.00 67 1015.2
20260509214503 70 275 1.0 4.0 0.00 0.00 0.00 67 1015.2
20260509214003 70 274 1.0 4.0 0.00 0.00 0.00 65 1015.2
20260509213503 70 273 1.0 9.0 0.00 0.00 0.00 66 1015.2
20260509213024 70 278 1.0 9.0 0.00 0.00 0.00 67 1015.2
20260509212524 69 252 1.0 5.0 0.00 0.00 0.00 67 1015.2
20260509212003 69 265 2.0 5.0 0.00 0.00 0.00 65 1015.2
20260509211503 69 239 2.0 6.0 0.00 0.00 0.00 67 1015.2
20260509211003 69 221 2.0 6.0 0.00 0.00 0.00 65 1015.2
20260509210503 70 239 2.0 5.0 0.00 0.00 0.00 64 1015.2
20260509210003 70 245 1.0 4.0 0.00 0.00 0.00 63 1015.2
20260509205503 70 223 1.0 5.0 0.00 0.00 0.00 65 1015.2
20260509205003 70 233 1.0 5.0 0.00 0.00 0.00 65 1015.2
20260509204524 70 232 1.0 5.0 0.00 0.00 0.00 65 1015.2
20260509204003 70 240 1.0 7.0 0.00 0.00 0.00 65 1015.2
20260509203503 70 272 1.0 7.0 0.00 0.00 0.00 64 1015.2
20260509203003 69 314 1.0 5.0 0.00 0.00 0.00 63 1015.2
20260509202524 69 275 2.0 5.0 0.00 0.00 0.00 64 1015.2
20260509202024 69 272 2.0 4.0 0.00 0.00 0.00 63 1015.2
20260509201503 69 290 1.0 4.0 0.00 0.00 0.00 64 1015.2
20260509201024 69 270 1.0 3.0 0.00 0.00 0.00 63 1015.2
20260509200503 68 287 1.0 5.0 0.00 0.00 0.00 66 1015.2
20260509200003 68 251 2.0 5.0 0.00 0.00 0.00 68 1015.2
20260509195503 68 73 1.0 5.0 0.00 0.00 0.00 67 1015.2
20260509195003 68 328 1.0 5.0 0.00 0.00 0.00 68 1015.2
20260509194503 67 283 1.0 5.0 0.00 0.00 0.00 69 1015.2
20260509194003 67 286 1.0 5.0 0.00 0.00 0.00 70 1015.2
20260509193503 67 303 1.0 5.0 0.00 0.00 0.00 70 1015.2
20260509193003 67 288 1.0 5.0 0.00 0.00 0.00 69 1015.2
20260509192503 66 249 1.0 5.0 0.00 0.00 0.00 70 1015.2
20260509192024 66 247 2.0 5.0 0.00 0.00 0.00 71 1015.2
20260509191503 66 261 1.0 5.0 0.00 0.00 0.00 70 1015.2
20260509191003 66 247 1.0 5.0 0.00 0.00 0.00 72 1015.2
20260509190524 65 240 1.0 5.0 0.00 0.00 0.00 71 1015.2
20260509190024 66 258 1.0 5.0 0.00 0.00 0.00 71 1015.2
20260509185503 66 252 1.0 5.0 0.00 0.00 0.00 72 1015.2
20260509185003 65 240 1.0 5.0 0.00 0.00 0.00 71 1015.2
20260509184524 65 250 1.0 4.0 0.00 0.00 0.00 72 1015.2
20260509184003 65 255 1.0 4.0 0.00 0.00 0.00 72 1015.2
20260509183503 65 235 2.0 7.0 0.00 0.00 0.00 73 1015.2
20260509183003 65 235 2.0 7.0 0.00 0.00 0.00 71 1015.2
20260509182503 65 278 1.0 6.0 0.00 0.00 0.00 72 1015.2
20260509182003 64 273 1.0 5.0 0.00 0.00 0.00 73 1015.2
20260509181524 64 217 1.0 3.0 0.00 0.00 0.00 73 1015.2
20260509181024 63 223 2.0 8.0 0.00 0.00 0.00 74 1015.2
20260509180503 62 226 2.0 8.0 0.00 0.00 0.00 75 1015.2
20260509180024 62 209 1.0 6.0 0.00 0.00 0.00 77 1015.2
20260509175524 62 206 2.0 6.0 0.00 0.00 0.00 77 1015.2
20260509175003 61 216 2.0 6.0 0.00 0.00 0.00 77 1015.2
20260509174503 61 216 2.0 6.0 0.00 0.00 0.00 79 1015.2
20260509174024 61 212 1.0 6.0 0.00 0.00 0.00 80 1015.2
20260509173524 60 205 1.0 4.0 0.00 0.00 0.00 82 1015.2
20260509173003 60 213 1.0 5.0 0.00 0.00 0.00 84 1015.2
20260509172503 60 222 2.0 5.0 0.00 0.00 0.00 85 1015.2
20260509172003 59 241 1.0 5.0 0.00 0.00 0.00 87 1015.2
20260509171503 59 233 1.0 3.0 0.00 0.00 0.00 88 1015.2
20260509171024 58 227 1.0 3.0 0.00 0.00 0.00 89 1015.2
20260509170504 57 266 1.0 3.0 0.00 0.00 0.00 91 1015.2
20260509170024 57 303 1.0 3.0 0.00 0.00 0.00 91 1015.2
20260509165503 56 238 1.0 3.0 0.00 0.00 0.00 92 1015.2
20260509165003 56 200 1.0 5.0 0.00 0.00 0.00 92 1015.2
20260509164503 55 207 1.0 5.0 0.00 0.00 0.00 93 1015.2
20260509164003 55 217 1.0 3.0 0.00 0.00 0.00 93 1015.2
20260509163503 55 209 1.0 5.0 0.00 0.00 0.00 93 1015.2
20260509163003 54 216 1.0 5.0 0.00 0.00 0.00 93 1015.2
20260509162503 54 243 0.0 3.0 0.00 0.00 0.00 94 1015.2
20260509162003 54 216 1.0 3.0 0.00 0.00 0.00 94 1015.2
20260509161503 53 218 1.0 3.0 0.00 0.00 0.00 94 1015.2
20260509161003 53 231 1.0 3.0 0.00 0.00 0.00 94 1015.2
20260509160503 53 238 1.0 3.0 0.00 0.00 0.00 94 1015.2
20260509160003 53 215 0.0 3.0 0.00 0.00 0.00 94 1015.2
20260509155503 53 204 1.0 4.0 0.00 0.00 0.00 94 1015.2
20260509155003 52 205 1.0 4.0 0.00 0.00 0.00 94 1015.2
20260509154503 52 214 1.0 3.0 0.00 0.00 0.00 94 1015.2
20260509154024 52 225 1.0 4.0 0.00 0.00 0.00 94 1015.2
20260509153524 52 221 1.0 4.0 0.00 0.00 0.00 94 1015.2
20260509153003 52 210 0.0 3.0 0.00 0.00 0.00 94 1015.2
20260509152503 52 206 0.0 3.0 0.00 0.00 0.00 94 1015.2
20260509152003 52 205 1.0 3.0 0.00 0.00 0.00 94 1015.2
20260509151524 52 206 1.0 3.0 0.00 0.00 0.00 94 1015.2
20260509151003 52 206 1.0 3.0 0.00 0.00 0.00 94 1015.2
20260509150503 52 214 1.0 5.0 0.00 0.00 0.00 94 1015.2
20260509150003 52 206 1.0 5.0 0.00 0.00 0.00 94 1015.2
20260509145503 52 182 1.0 3.0 0.00 0.00 0.00 94 1015.2
20260509145003 51 180 1.0 3.0 0.00 0.00 0.00 94 1015.2
20260509144524 51 188 1.0 3.0 0.00 0.00 0.00 94 1015.2